World > North America > United States > Ohio

Portsmouth, Ohio Regional Weather

Lat: 38.76N, Lon: 82.95W
Wx Zone: OHZ088
Warning NWS WEATHER ALERT - (More Info. Click Here) Warning
Feedback

Portsmouth, OH Regional Weather

Expires:202003291300;;251749
ASUS41 KCLE 291212
RWRCLE
OHIO REGIONAL WEATHER ROUNDUP
NATIONAL WEATHER SERVICE WILMINGTON, OH
800 AM EDT SUN MAR 29 2020

NOTE: "FAIR" INDICATES FEW OR NO CLOUDS BELOW 12,000 FEET WITH NO
SIGNIFICANT WEATHER AND/OR OBSTRUCTIONS TO VISIBILITY.


OHZ036-037-039>041-045>050-054>059-063>069-073>076-082>088-291300-
  CENTRAL AND SOUTHEAST OHIO
  
CITY           SKY/WX    TMP DP  RH WIND       PRES   REMARKS
COLUMBUS       MOCLDY    66  58  75 S17       29.67S                  
OSU AIRPORT    FAIR      65  57  75 S13       29.66R                  
BOLTON FIELD   MOCLDY    64  61  88 S14       29.68R                  
RICKENBACK AFB MOCLDY    66  59  78 S18G26    29.68S                  
NEWARK         NOT AVBL                                               
MARION         FAIR      63  58  83 SW15      29.63R                  
LANCASTER      CLOUDY    66  60  81 SW10      29.70S                  
ZANESVILLE     CLOUDY    64  60  87 S10       29.71S                  
NEW PHILLY     CLOUDY    68  57  68 SW13G20   29.69R                  
$$
  

SKY/WX - Weather  TMP - Temperature  DP - Dew Point  RH - Relative Humidity
WIND - Wind Direction/Speed PRES - Barometric Pressure VSB - Visibility
WCI - Wind Chill Index E13G22 Wind - East Wind 13 mph/Gusts of 22 mph
Portsmouth Weather Map
UTC Time: 3/29/2020, 12:22
Your Time: